Temp
14 14 14 14 13 13 12 12 13 13 13 12 13 13 13 13 13 13 12 11 10 10 10 10 10 10 10 10 9 9 9 9 8 9 8 8 8 8 8 8 8 8 8 8 8 8 8 8 8
14 14 14 14 13 12 12 12 13 14 14 13 12 12 13 13 13 13 12 11 10 10 11 10 10 10 10 10 9 9 9 9 9 9 9 8 8 8 8 8 8 8 8 8 8 8 8 8 8
14 15 15 14 12 12 13 13 13 13 13 13 14 13 13 13 12 12 11 11 10 10 10 10 10 10 10 9 9 9 9 9 9 9 9 9 8 8 8 8 8 8 8 8 8 8 8 7 7
13 15 15 12 11 12 12 12 13 13 13 13 13 13 12 11 11 12 11 11 10 10 10 10 10 10 10 10 10 9 9 9 9 9 9 9 9 8 8 8 8 8 8 8 8 8 8 7 7
15 13 14 12 12 12 12 12 13 13 13 13 13 12 12 10 11 11 11 10 10 10 10 10 10 10 10 9 9 9 9 9 9 9 9 8 8 8 8 8 8 8 8 8 8 8 8 7 7
14 14 13 12 12 13 13 13 13 13 12 12 12 12 10 10 11 11 10 10 10 10 10 10 10 10 10 9 9 9 9 9 9 9 8 8 8 8 8 8 8 8 8 8 8 8 8 7 7
14 14 15 14 13 13 14 13 13 13 13 12 11 12 9 9 11 10 10 10 10 10 10 10 10 10 9 9 9 9 9 9 8 8 8 8 8 8 8 8 8 8 8 8 8 8 8 7 7
15 14 15 14 14 14 13 13 12 13 12 11 12 11 10 9 10 10 9 9 9 10 10 9 9 9 9 9 9 9 9 8 8 8 8 8 8 8 8 8 8 8 8 8 8 8 8 8 7
14 15 15 15 15 14 13 14 12 11 12 11 10 11 11 9 9 10 10 10 10 10 10 9 9 9 9 9 9 8 8 8 8 8 8 8 8 8 8 8 8 8 8 8 8 8 8 8 8
16 16 16 15 15 14 14 14 13 12 11 11 10 10 9 10 10 10 10 10 9 10 10 10 9 9 9 9 8 8 8 7 8 8 8 8 8 8 8 8 8 8 8 8 8 8 8 8 8
16 16 16 16 15 15 14 14 13 13 12 12 12 10 10 9 10 9 9 9 9 9 10 9 9 9 9 8 8 8 7 7 7 7 8 9 8 8 8 8 8 8 8 8 8 8 8 8 8
16 16 16 15 15 15 15 14 13 12 12 11 11 11 10 9 9 9 10 10 9 10 9 9 9 9 9 8 8 7 7 7 7 7 8 9 8 8 7 8 8 8 8 8 9 9 8 8 7
16 17 16 15 15 16 16 14 13 12 11 10 10 10 10 10 10 10 10 10 10 10 10 9 9 8 8 8 8 7 8 7 7 8 9 10 9 8 7 8 8 8 8 8 9 8 8 8 8
17 17 16 15 16 15 16 13 13 11 11 11 10 10 10 10 10 11 11 11 10 10 10 9 9 9 9 8 8 8 8 8 8 9 10 10 9 9 9 8 8 8 9 8 9 8 8 8 8
17 16 16 15 16 15 15 13 14 12 12 11 11 10 10 11 11 11 11 11 11 10 10 9 9 9 9 9 8 9 9 8 8 9 9 10 9 9 9 9 8 8 9 8 9 9 8 8 8
18 16 16 16 16 15 15 13 14 12 12 12 12 12 11 11 11 11 11 11 10 9 9 9 9 9 9 9 9 9 9 8 9 9 9 9 9 8 9 8 8 8 8 8 8 9 8 8 8
18 17 17 16 16 17 16 14 14 13 12 12 12 12 12 12 11 11 11 10 10 10 10 10 9 9 9 9 9 9 9 9 9 9 9 9 8 9 8 8 8 8 8 7 8 8 8 8 8
18 18 18 17 17 16 16 16 14 13 13 13 13 13 13 13 12 12 11 11 11 10 10 10 10 10 10 9 9 9 9 10 10 9 9 9 9 9 9 8 8 7 8 8 8 8 8 8 8
18 18 18 18 18 17 17 16 15 14 14 13 13 13 14 12 12 12 11 11 10 10 10 10 10 10 9 9 10 10 9 9 9 10 9 9 9 9 9 8 8 8 8 9 8 8 7 8 7
17 17 18 18 18 17 17 16 15 16 15 15 14 14 15 14 12 12 12 12 11 10 10 10 10 10 10 10 10 9 10 9 10 10 10 9 9 9 8 8 8 8 8 8 8 8 8 8 8
17 18 18 18 18 17 17 15 15 15 14 14 14 14 15 16 14 12 12 13 12 11 10 10 10 10 10 10 10 10 10 9 10 10 10 9 9 10 9 9 8 8 8 8 8 7 7 8 8
18 18 19 19 18 18 17 16 15 15 15 15 15 14 15 16 15 14 13 13 12 11 11 11 11 11 11 11 10 10 11 11 10 10 10 10 10 10 10 10 9 8 8 8 8 8 8 8 7
17 18 19 19 19 19 19 18 19 16 15 15 15 14 15 15 15 15 15 14 13 12 11 11 12 11 11 11 11 11 11 10 10 10 10 11 10 10 9 9 9 9 8 8 9 8 8 8 7
18 18 19 19 19 17 19 18 19 16 16 16 15 14 14 14 15 15 14 13 13 11 12 12 12 12 12 12 11 11 11 11 10 10 10 11 10 10 10 9 9 9 10 9 9 9 8 7 8
18 18 18 16 15 14 18 18 18 17 16 16 16 15 15 14 13 14 14 13 14 13 12 11 12 12 12 11 11 11 11 10 10 10 10 10 11 11 10 10 10 11 10 9 9 9 9 8 8
18 18 18 14 12 16 17 17 17 15 17 17 16 15 15 15 13 14 14 13 13 14 12 12 12 12 12 12 12 11 11 10 10 10 10 10 11 11 11 11 10 10 10 10 10 9 9 9 9
18 18 18 18 17 16 15 16 18 16 16 15 14 14 13 13 14 15 14 13 13 13 12 13 12 12 12 11 11 11 11 11 10 10 10 10 11 11 11 11 11 11 11 11 11 10 9 9 9
18 18 18 18 15 15 14 17 17 18 15 12 12 12 13 14 14 14 14 14 13 13 13 11 12 12 11 11 11 11 11 10 10 10 10 10 10 11 11 11 11 11 11 10 10 10 10 10 9
18 18 18 18 18 13 11 15 17 17 17 15 13 10 14 14 14 14 13 14 13 14 12 12 11 11 11 11 11 11 11 11 11 11 11 10 10 10 10 10 10 10 10 10 10 10 10 10 10
17 17 17 17 17 16 15 16 17 17 16 15 15 15 13 12 14 13 12 14 13 13 11 11 11 11 11 10 11 11 12 12 11 11 10 9 10 10 10 10 10 10 11 11 11 11 10 10 10
Height
3178 3179 3176 3178 3182 3181 3180 3181 3180 3179 3178 3177 3177 3177 3178 3179 3180 3183 3181 3182 3185 3188 3190 3191 3194 3196 3197 3199 3201 3203 3205 3206 3208 3209 3209 3209 3210 3210 3211 3211 3212 3213 3214 3214 3215 3216 3217 3217 3218
3180 3181 3181 3180 3181 3183 3183 3184 3182 3182 3179 3178 3178 3178 3176 3177 3178 3178 3180 3183 3187 3190 3192 3194 3195 3197 3199 3200 3202 3204 3206 3207 3208 3209 3210 3211 3212 3212 3211 3212 3213 3214 3215 3216 3217 3217 3218 3219 3220
3182 3181 3178 3181 3181 3183 3183 3185 3182 3183 3182 3181 3180 3179 3177 3178 3178 3180 3183 3183 3187 3191 3193 3195 3196 3198 3200 3202 3203 3205 3206 3207 3208 3209 3211 3212 3212 3212 3212 3213 3213 3215 3216 3217 3218 3219 3219 3219 3220
3181 3177 3178 3181 3184 3182 3183 3184 3184 3183 3183 3181 3179 3179 3179 3181 3183 3183 3184 3185 3188 3191 3194 3196 3198 3199 3201 3202 3204 3206 3207 3207 3208 3209 3211 3213 3213 3212 3212 3213 3213 3214 3216 3217 3218 3219 3220 3220 3220
3183 3181 3179 3182 3184 3182 3184 3182 3183 3184 3182 3180 3179 3177 3180 3182 3186 3185 3185 3187 3190 3193 3195 3197 3199 3200 3201 3203 3205 3206 3207 3208 3209 3210 3211 3212 3212 3213 3213 3214 3215 3215 3216 3216 3217 3218 3219 3220 3221
3184 3182 3181 3183 3183 3183 3183 3185 3184 3184 3183 3182 3180 3178 3182 3185 3186 3186 3188 3190 3193 3195 3196 3198 3200 3201 3203 3204 3205 3206 3207 3208 3209 3210 3211 3211 3211 3212 3213 3213 3213 3214 3215 3216 3216 3217 3218 3219 3220
3182 3185 3183 3183 3184 3184 3184 3185 3185 3185 3183 3182 3180 3179 3181 3184 3187 3189 3190 3192 3194 3197 3198 3199 3200 3202 3203 3204 3205 3206 3207 3208 3208 3210 3210 3211 3211 3212 3211 3212 3212 3213 3215 3214 3214 3215 3215 3217 3218
3182 3186 3186 3187 3187 3188 3186 3187 3188 3187 3184 3182 3181 3181 3182 3183 3188 3190 3192 3194 3196 3198 3199 3200 3202 3203 3203 3204 3205 3206 3208 3208 3208 3208 3210 3211 3211 3212 3211 3211 3212 3212 3213 3213 3213 3214 3214 3216 3218
3184 3187 3187 3187 3186 3187 3186 3186 3186 3185 3184 3184 3183 3183 3181 3185 3189 3191 3193 3194 3196 3198 3199 3200 3201 3202 3203 3204 3204 3205 3206 3206 3206 3206 3209 3210 3210 3210 3211 3211 3211 3211 3212 3212 3212 3212 3213 3215 3217
3186 3186 3186 3185 3186 3186 3187 3186 3183 3183 3183 3185 3185 3187 3185 3187 3190 3192 3194 3196 3197 3199 3200 3200 3200 3201 3202 3203 3203 3204 3204 3203 3203 3204 3207 3209 3209 3208 3208 3209 3209 3210 3211 3212 3211 3211 3211 3213 3215
3185 3185 3185 3186 3188 3188 3186 3185 3183 3184 3184 3184 3183 3185 3188 3188 3192 3194 3196 3197 3198 3199 3199 3200 3200 3200 3201 3202 3202 3203 3200 3200 3200 3200 3204 3206 3207 3206 3205 3205 3207 3209 3210 3211 3211 3210 3210 3212 3214
3187 3187 3187 3187 3189 3190 3189 3187 3185 3186 3186 3185 3185 3186 3188 3191 3193 3195 3197 3197 3198 3199 3199 3199 3199 3200 3200 3201 3201 3200 3199 3197 3196 3197 3200 3203 3205 3206 3203 3201 3205 3208 3210 3209 3210 3210 3209 3210 3212
3186 3187 3187 3187 3187 3188 3187 3187 3187 3187 3186 3187 3186 3187 3189 3191 3195 3197 3199 3199 3200 3200 3201 3200 3199 3200 3200 3200 3200 3199 3198 3196 3194 3194 3198 3201 3205 3206 3205 3205 3207 3208 3208 3208 3207 3208 3209 3210 3210
3185 3187 3186 3187 3188 3187 3187 3186 3187 3189 3187 3187 3187 3187 3190 3191 3194 3196 3198 3199 3200 3201 3201 3200 3199 3200 3200 3200 3201 3200 3198 3196 3194 3195 3197 3201 3204 3204 3205 3207 3208 3207 3207 3206 3206 3205 3207 3208 3209
3187 3186 3188 3188 3189 3188 3187 3189 3189 3189 3189 3189 3190 3189 3190 3192 3194 3196 3196 3197 3196 3198 3199 3198 3199 3199 3199 3200 3201 3200 3199 3197 3196 3197 3199 3201 3203 3203 3204 3206 3207 3206 3206 3205 3204 3204 3206 3207 3207
3186 3185 3188 3188 3188 3187 3188 3189 3189 3188 3190 3190 3191 3191 3192 3191 3192 3195 3196 3197 3196 3197 3197 3197 3198 3199 3200 3200 3200 3200 3199 3198 3197 3196 3197 3199 3201 3203 3204 3204 3206 3205 3204 3204 3203 3205 3206 3206 3206
3183 3184 3185 3187 3188 3187 3187 3188 3189 3189 3190 3191 3191 3191 3191 3193 3193 3195 3196 3196 3197 3198 3198 3198 3197 3198 3199 3199 3199 3200 3199 3199 3198 3197 3197 3198 3197 3200 3201 3201 3201 3201 3201 3201 3202 3204 3205 3205 3205
3179 3181 3181 3182 3185 3187 3186 3186 3188 3189 3189 3190 3190 3191 3190 3191 3192 3194 3196 3196 3197 3197 3198 3197 3198 3199 3198 3197 3199 3199 3198 3198 3199 3198 3198 3198 3197 3198 3199 3199 3200 3200 3199 3200 3200 3201 3203 3204 3203
3178 3178 3180 3180 3181 3183 3183 3184 3185 3186 3187 3186 3188 3188 3189 3190 3192 3193 3194 3195 3196 3196 3197 3198 3198 3198 3197 3197 3197 3197 3197 3197 3198 3199 3200 3199 3198 3199 3200 3201 3200 3198 3198 3198 3199 3200 3188 3201 3202
3177 3178 3178 3179 3179 3180 3181 3182 3183 3183 3182 3182 3185 3188 3188 3189 3189 3191 3194 3196 3196 3196 3199 3199 3199 3199 3198 3197 3196 3197 3197 3198 3198 3199 3200 3199 3199 3200 3199 3199 3199 3198 3197 3199 3200 3200 3200 3202 3202
3176 3176 3174 3176 3177 3180 3179 3183 3183 3183 3183 3183 3186 3188 3189 3191 3190 3191 3193 3197 3197 3198 3199 3199 3199 3198 3198 3197 3197 3197 3198 3197 3198 3199 3199 3198 3198 3199 3197 3196 3195 3195 3196 3197 3198 3199 3200 3200 3200
3172 3174 3174 3176 3176 3178 3178 3179 3179 3180 3180 3181 3183 3187 3188 3191 3192 3193 3195 3197 3198 3198 3198 3198 3199 3197 3197 3197 3197 3198 3198 3198 3199 3199 3199 3197 3199 3198 3197 3194 3193 3191 3193 3195 3196 3197 3197 3197 3196
3173 3174 3174 3174 3174 3175 3175 3176 3174 3177 3178 3179 3182 3187 3189 3194 3195 3195 3194 3196 3196 3198 3198 3198 3199 3199 3198 3198 3198 3199 3200 3199 3199 3198 3196 3195 3197 3197 3193 3177 3189 3191 3193 3194 3195 3193 3194 3194 3190
3170 3171 3172 3171 3172 3171 3171 3173 3169 3168 3170 3177 3183 3187 3193 3194 3194 3194 3195 3195 3196 3196 3198 3198 3197 3198 3199 3198 3197 3198 3199 3200 3200 3198 3197 3195 3195 3197 3195 3190 3188 3191 3190 3190 3190 3191 3191 3191 3191
3168 3171 3170 3172 3171 3171 3168 3169 3165 3163 3167 3170 3174 3178 3182 3185 3191 3192 3193 3193 3192 3192 3194 3197 3196 3196 3196 3197 3198 3199 3197 3198 3198 3196 3195 3194 3195 3195 3193 3191 3189 3189 3188 3188 3190 3191 3191 3187 3186
3166 3168 3169 3174 3174 3167 3167 3165 3163 3162 3165 3169 3173 3175 3178 3179 3183 3188 3190 3190 3191 3192 3192 3193 3194 3194 3194 3194 3195 3198 3198 3198 3196 3195 3193 3193 3193 3193 3193 3192 3190 3189 3189 3189 3190 3190 3189 3188 3187
3164 3165 3167 3166 3167 3167 3168 3166 3165 3164 3166 3169 3176 3179 3181 3183 3182 3182 3184 3185 3189 3187 3185 3191 3190 3190 3191 3193 3191 3191 3191 3190 3194 3192 3192 3192 3191 3192 3192 3191 3190 3190 3190 3189 3187 3186 3185 3184 3183
3162 3164 3164 3165 3168 3168 3166 3164 3165 3168 3169 3171 3171 3176 3176 3177 3177 3178 3181 3186 3182 3179 3177 3176 3179 3181 3184 3187 3188 3187 3188 3188 3190 3189 3190 3190 3189 3189 3189 3189 3189 3188 3187 3185 3183 3182 3180 3179 3178
3160 3160 3161 3163 3164 3164 3167 3163 3164 3169 3174 3166 3167 3163 3164 3163 3166 3171 3174 3175 3174 3163 3159 3164 3168 3169 3176 3175 3180 3181 3180 3183 3183 3185 3185 3187 3187 3186 3185 3185 3184 3182 3182 3180 3178 3176 3174 3172 3173
3160 3161 3160 3160 3162 3159 3161 3165 3164 3167 3169 3169 3164 3159 3152 3152 3157 3161 3163 3166 3161 3162 3163 3170 3165 3163 3166 3170 3174 3176 3176 3177 3178 3180 3182 3183 3183 3183 3182 3180 3178 3177 3176 3172 3168 3166 3164 3163 3163
Wind_Speed
2 4 6 11 8 16 15 9 16 17 17 10 9 6 8 3 10 5 23 25 25 24 24 25 24 23 24 24 22 21 19 18 16 14 13 12 11 10 11 11 12 11 11 12 11 12 13 11 11
5 2 6 12 11 14 4 13 12 10 11 7 11 5 9 10 9 14 26 25 24 22 21 23 23 22 23 22 21 19 17 15 13 12 10 9 8 8 9 9 9 9 9 9 10 10 11 11 10
12 10 4 11 11 7 9 9 6 7 6 1 6 4 3 8 9 24 22 26 24 22 21 21 21 20 20 20 18 17 15 13 12 10 9 8 7 7 7 7 7 7 7 7 8 8 8 8 9
15 10 25 14 14 13 11 12 5 5 3 4 1 6 18 15 17 21 24 23 22 21 20 19 19 19 18 17 17 15 14 13 11 10 9 7 6 5 5 5 6 6 7 9 9 9 9 8 7
17 20 20 22 19 16 12 10 6 3 3 1 3 10 12 10 8 18 20 22 20 20 19 19 18 17 16 15 15 15 13 12 11 10 8 7 7 6 5 5 6 7 7 8 10 11 11 10 9
8 14 19 14 14 11 6 5 6 3 5 5 6 14 13 6 2 16 17 20 18 16 17 18 17 16 15 14 13 13 13 11 11 10 9 9 8 7 6 6 6 7 7 8 9 10 11 11 12
9 12 19 19 19 13 7 10 4 4 3 5 9 9 20 16 6 15 19 19 18 17 15 15 15 15 15 15 14 13 12 12 11 10 10 10 9 7 7 7 6 7 7 8 9 10 11 12 13
5 7 14 14 13 13 9 11 6 2 8 8 7 13 21 17 8 11 18 19 18 16 15 13 12 12 12 12 12 12 12 12 12 13 12 10 10 8 8 8 8 7 6 8 9 10 11 11 13
4 10 13 15 10 17 9 3 6 10 7 9 4 16 13 12 12 6 9 11 11 11 13 12 12 11 12 11 12 12 12 13 16 16 13 12 11 10 9 9 9 8 6 7 8 8 10 11 12
9 14 12 10 8 12 5 5 4 12 10 6 11 15 18 16 11 5 4 10 8 7 8 11 11 11 12 13 14 10 11 14 18 20 15 13 13 11 10 12 11 10 8 7 8 8 9 10 10
17 12 12 9 8 6 8 2 3 7 11 6 5 14 13 22 11 6 6 8 5 2 9 11 10 11 12 13 13 14 15 14 16 20 21 14 15 15 13 13 13 12 10 8 8 7 7 9 9
13 7 10 14 10 7 6 5 7 3 6 4 6 6 11 19 15 12 6 5 3 4 7 9 10 10 10 9 9 10 12 11 12 16 17 20 16 12 15 15 9 9 10 9 8 5 6 10 11
17 10 12 16 14 4 7 5 6 5 5 12 11 7 11 12 9 5 5 7 4 2 5 7 7 7 9 7 5 4 7 8 8 11 15 13 14 8 3 5 9 8 11 9 8 6 7 9 12
13 9 15 18 10 2 6 7 4 8 10 12 10 9 15 10 5 3 2 4 2 2 3 1 3 8 7 7 5 4 8 6 3 5 11 12 9 7 10 7 8 9 11 12 9 7 10 11 12
9 15 18 16 8 6 7 8 8 11 12 14 16 14 9 10 8 1 6 5 2 5 5 3 2 6 7 6 5 1 4 5 4 3 5 7 8 9 7 6 7 9 8 9 7 8 15 9 10
15 17 18 18 14 11 5 8 5 7 9 12 13 11 8 6 2 2 8 10 4 0 2 4 3 6 9 7 6 3 2 2 1 1 3 4 4 6 6 5 7 10 9 9 6 7 12 12 14
15 17 12 19 18 10 9 11 7 8 7 7 9 7 6 4 8 7 8 10 3 7 2 3 5 7 9 8 6 2 2 2 2 0 2 5 7 4 6 7 8 4 8 9 8 9 12 11 9
4 23 14 19 20 16 11 7 14 12 10 5 4 3 3 5 4 5 5 9 1 3 3 1 1 8 9 7 5 2 2 2 3 2 0 2 4 4 6 6 6 5 6 11 7 8 10 9 10
12 17 14 13 16 19 16 14 16 13 13 14 7 5 2 8 5 5 4 8 2 4 2 1 2 6 7 7 5 3 3 2 2 4 3 1 2 3 4 3 3 3 3 6 8 9 17 8 10
9 19 17 9 16 19 20 19 18 12 15 11 11 3 4 2 8 8 7 3 1 2 1 1 3 5 6 5 6 5 3 6 9 5 6 5 4 2 3 5 7 5 5 5 7 10 14 9 6
15 11 7 17 17 22 16 20 24 19 21 18 17 4 5 7 2 8 6 3 2 4 3 3 2 5 7 7 8 8 9 12 5 6 5 6 4 0 4 5 6 9 8 9 11 12 8 8 7
12 6 3 4 20 16 15 10 28 30 30 28 23 19 9 4 5 6 4 6 5 4 3 2 2 5 7 7 10 10 7 6 6 6 8 3 4 7 11 14 9 11 10 13 13 16 13 11 12
22 14 13 11 5 9 14 5 13 32 34 31 32 25 16 5 6 7 8 9 6 3 3 2 4 5 7 7 8 11 10 10 10 7 5 4 6 17 25 5 2 5 8 13 15 15 12 14 14
15 10 6 6 8 9 17 12 12 37 37 30 33 30 16 12 7 13 13 11 10 10 3 5 6 7 9 10 9 8 9 10 8 6 4 8 10 12 15 13 3 6 8 3 1 11 13 13 14
17 10 2 4 3 11 7 3 10 24 38 31 33 32 25 23 12 20 20 18 14 12 9 9 10 9 7 6 7 6 6 5 4 3 3 6 9 11 13 14 10 5 9 3 5 7 9 8 12
17 16 13 5 3 4 6 7 7 21 22 22 33 32 29 29 19 21 23 26 22 12 13 12 14 13 11 8 6 6 5 3 2 1 4 5 6 9 9 9 6 5 7 8 6 6 8 11 9
22 15 18 18 16 4 3 4 1 20 16 11 20 28 27 25 25 19 25 28 27 22 17 16 17 15 14 13 11 9 9 9 6 5 7 9 6 4 3 4 5 5 7 9 10 10 11 13 12
12 12 10 4 1 2 3 3 5 5 8 12 18 18 21 27 20 25 12 21 36 31 24 33 22 20 18 17 15 12 10 9 10 10 10 9 8 7 7 6 8 11 14 17 17 16 16 16 17
4 6 5 8 3 7 2 3 3 7 8 15 16 12 25 25 23 23 21 17 35 33 40 36 29 22 24 14 16 12 11 11 11 11 10 10 10 10 10 13 17 20 22 23 23 23 23 23 20
6 3 3 3 6 3 4 2 3 5 0 13 22 27 31 22 18 20 18 26 40 41 39 38 36 25 19 14 12 12 13 14 13 11 11 11 12 13 16 19 21 23 27 29 28 25 26 27 27
Wind_Direction
85 64 29 127 89 105 89 110 141 142 135 180 155 151 163 189 163 173 158 155 157 156 153 153 153 151 151 152 148 144 141 137 137 133 133 133 140 136 124 120 116 119 116 114 115 116 118 123 124
34 338 52 107 132 111 125 108 120 129 125 163 126 156 186 192 202 180 162 156 159 157 156 158 158 156 155 156 156 154 152 149 147 144 148 150 148 139 135 132 127 131 136 131 132 129 127 126 125
31 42 110 124 140 193 140 117 121 99 94 282 179 189 183 198 156 160 160 154 161 160 161 165 164 162 160 162 164 163 162 164 167 167 171 168 163 151 150 155 153 159 163 164 166 163 154 146 140
52 119 115 110 126 173 125 99 155 129 143 292 344 105 117 79 148 161 156 154 162 165 167 170 169 169 169 169 173 171 174 177 183 183 182 181 189 182 183 185 179 190 198 195 196 190 185 180 170
53 84 108 106 133 104 137 120 187 158 152 27 218 140 119 112 120 165 157 156 165 168 170 172 176 177 178 178 181 181 186 187 195 200 193 195 204 206 203 214 225 221 216 209 208 208 207 202 199
43 91 115 144 146 113 104 115 154 179 129 132 184 140 129 123 105 152 159 159 169 173 169 175 179 184 188 192 193 190 197 199 207 212 211 216 220 220 234 234 237 241 223 210 207 205 208 209 201
271 103 101 124 134 121 127 146 222 84 113 138 181 131 153 157 134 128 155 175 170 176 175 176 184 190 194 202 206 204 207 216 221 226 227 234 238 237 239 250 242 249 238 220 211 205 203 202 203
165 215 112 114 129 128 139 148 166 340 118 140 180 162 157 174 149 119 134 153 175 181 181 184 191 200 210 213 217 225 226 231 237 239 242 245 253 248 250 258 262 249 240 236 217 207 204 200 207
162 179 131 118 107 143 169 196 133 158 107 117 176 163 194 176 180 150 160 151 170 183 189 191 199 208 223 228 233 240 239 244 252 247 248 253 254 255 257 261 270 258 231 233 224 206 198 197 207
129 131 125 116 79 142 175 341 123 143 136 161 163 181 189 179 164 105 135 194 140 189 211 195 199 216 230 237 238 243 256 253 254 250 243 245 250 256 263 263 260 251 231 231 222 201 195 198 205
142 131 145 119 95 102 132 100 254 192 175 216 202 159 173 189 154 138 137 172 163 190 205 193 202 221 227 235 246 264 277 261 254 248 239 226 240 247 269 266 228 241 237 234 234 202 194 200 201
159 123 134 141 130 108 59 156 168 187 193 216 176 163 170 170 183 192 165 168 137 106 131 174 207 214 218 218 240 261 273 266 262 241 236 221 228 245 292 191 231 231 236 233 237 218 193 201 201
153 126 146 157 158 91 21 80 108 121 100 166 184 189 153 131 142 164 185 210 169 66 130 160 185 203 208 217 245 286 293 280 270 233 212 215 211 215 185 182 215 247 229 237 238 215 204 221 211
162 158 167 173 171 104 3 105 24 111 90 140 195 209 165 173 182 184 173 131 335 236 146 270 208 184 204 213 221 313 341 345 37 176 180 188 184 197 209 221 200 223 237 214 242 222 212 223 221
170 165 155 178 177 155 98 130 45 108 113 117 124 174 167 191 218 102 353 341 275 272 321 291 209 202 206 216 186 27 10 16 44 176 165 180 188 204 233 226 224 228 222 216 241 246 210 205 213
154 153 175 191 180 188 202 163 109 140 145 112 109 117 149 145 36 332 339 0 49 344 280 242 244 220 215 214 214 282 322 27 22 152 199 201 218 231 231 248 244 232 210 224 249 232 212 211 212
191 185 211 195 205 237 188 158 162 140 182 141 132 138 58 170 230 269 343 353 334 294 303 233 261 223 215 226 234 241 313 16 23 223 214 241 259 242 243 262 287 276 226 230 229 248 224 220 215
176 208 224 220 224 218 225 189 172 158 185 170 158 113 328 40 37 316 353 6 301 259 296 284 230 211 209 211 232 230 215 0 24 353 220 213 245 245 230 248 275 287 272 237 228 259 218 208 204
212 219 228 211 230 213 228 200 167 170 183 197 186 191 291 252 241 288 302 341 298 304 288 285 167 168 190 200 199 175 173 135 137 113 96 347 249 227 248 269 276 308 320 213 222 233 231 225 220
190 265 266 214 209 209 217 209 176 184 205 222 215 137 136 82 228 245 319 334 86 37 147 230 203 183 182 170 172 161 156 81 105 102 89 91 75 44 230 251 255 252 254 218 214 224 245 211 232
287 256 249 209 204 205 197 197 187 205 212 221 225 225 183 118 117 237 272 319 108 129 112 31 210 187 175 156 134 135 143 138 83 66 78 85 87 67 297 249 239 240 246 240 238 241 233 235 246
292 326 206 255 211 209 206 208 204 201 214 222 226 213 228 203 138 174 229 252 144 125 121 70 222 187 174 162 137 150 135 102 74 95 89 55 9 4 326 282 258 250 233 242 242 248 247 241 238
277 290 252 259 303 250 247 247 254 207 214 219 222 218 233 169 212 188 161 180 185 226 120 149 163 178 158 156 134 124 119 118 85 99 104 6 26 27 8 177 225 289 275 251 251 251 255 259 248
261 269 240 278 247 280 263 269 271 210 215 217 213 212 207 187 203 211 229 230 205 234 214 196 177 174 165 160 154 147 133 127 117 95 54 20 27 42 25 31 297 48 42 39 38 253 259 252 262
251 256 303 341 324 236 296 245 241 211 214 223 217 214 208 187 238 223 218 224 208 193 216 242 215 208 204 178 164 159 142 136 119 83 18 9 23 36 43 46 87 64 15 2 309 294 274 253 274
233 234 232 202 204 258 303 225 194 199 217 207 210 214 216 218 205 200 231 223 228 210 231 218 226 210 203 208 199 210 213 194 188 295 305 344 9 33 42 34 26 358 343 342 319 298 302 294 267
215 273 254 251 272 279 307 314 183 200 206 189 184 211 222 240 243 257 203 210 227 223 209 223 228 228 221 213 223 228 235 242 248 278 288 304 340 2 2 3 360 352 335 330 320 308 299 293 291
247 248 278 266 143 349 234 268 282 204 178 151 187 212 245 246 253 204 203 203 226 223 219 230 228 237 240 235 232 237 250 255 263 261 271 283 300 293 297 300 307 313 315 313 307 297 285 281 274
283 252 289 303 298 167 194 243 56 123 191 261 268 259 272 265 228 229 207 222 209 217 222 221 224 222 237 223 240 222 225 234 252 257 261 275 279 280 288 297 305 312 312 307 299 288 279 274 266
17 37 91 76 320 62 8 148 148 145 186 245 255 260 272 259 230 205 201 215 211 216 227 224 223 217 208 206 222 216 237 246 250 262 271 266 263 274 286 296 302 307 309 309 305 297 286 274 266